Location: Memphis International Airport Police
(35.0443°N, 89.9815°W)
Time: 18:12:09
(UTC+00:00)

CZ-4 R/B - Pass Details

Date: 26 September 2023
Orbit: 521 x 578 km, 97.7° (Epoch: 10 December)

Event Time Altitude Azimuth Distance (km) Brightness Sun altitude
Exits shadow 00:42:58 13° 122° (ESE) 1,599 3.1 -11.1°
Maximum altitude 00:45:35 25° 72° (ENE) 1,102 2.3 -11.7°
Drops below altitude 10° 00:48:46 10° 16° (NNE) 1,783 3.8 -12.3°
Enters shadow 01:58:35 -38° 176° (S) 8,784 7.4 -26.2°
